| time (UTC) | temp C | wind direction | speed KPH | gust KPH | rain 1hr cm | rain 24hr cm | rain mn cm | humidity % | barometer mb |
| 20260507203023 | 20 | 123 | 1.6 | 14.5 | 0.00 | 1.12 | 0.03 | 34 | 1011.9 |
| 20260507201522 | 20 | 190 | 4.8 | 14.5 | 0.00 | 1.12 | 0.03 | 32 | 1012.2 |
| 20260507200019 | 20 | 194 | 3.2 | 12.9 | 0.00 | 1.12 | 0.03 | 33 | 1012.5 |
| 20260507194528 | 18 | 153 | 1.6 | 12.9 | 0.00 | 1.50 | 0.03 | 33 | 1012.6 |
| 20260507193032 | 18 | 356 | 3.2 | 11.3 | 0.00 | 1.50 | 0.03 | 32 | 1012.9 |
| 20260507191526 | 18 | 300 | 1.6 | 9.7 | 0.00 | 1.50 | 0.03 | 34 | 1013.3 |
| 20260507190024 | 17 | 238 | 3.2 | 12.9 | 0.00 | 1.50 | 0.03 | 34 | 1013.9 |
| 20260507184557 | 17 | 194 | 3.2 | 14.5 | 0.00 | 1.63 | 0.03 | 37 | 1014.1 |
| 20260507183026 | 16 | 252 | 3.2 | 11.3 | 0.00 | 1.63 | 0.03 | 37 | 1014.4 |
| 20260507181525 | 16 | 161 | 1.6 | 14.5 | 0.00 | 1.63 | 0.03 | 36 | 1014.7 |
| 20260507180020 | 16 | 165 | 1.6 | 9.7 | 0.00 | 1.63 | 0.03 | 39 | 1014.9 |
| 20260507174518 | 15 | 174 | 1.6 | 9.7 | 0.00 | 1.85 | 0.03 | 40 | 1014.9 |
| 20260507173110 | 14 | 300 | 1.6 | 6.4 | 0.00 | 1.85 | 0.03 | 40 | 1015.3 |
| 20260507171526 | 14 | 180 | 3.2 | 8.0 | 0.00 | 1.85 | 0.03 | 38 | 1015.5 |
| 20260507170021 | 13 | 204 | 1.6 | 12.9 | 0.00 | 1.85 | 0.03 | 43 | 1015.8 |
| 20260507164523 | 13 | 207 | 1.6 | 6.4 | 0.00 | 1.85 | 0.03 | 46 | 1016.2 |
| 20260507163032 | 13 | 232 | 1.6 | 6.4 | 0.00 | 1.85 | 0.03 | 42 | 1016.3 |
| 20260507161533 | 12 | 313 | 3.2 | 9.7 | 0.00 | 1.85 | 0.03 | 44 | 1016.6 |
| 20260507160028 | 11 | 167 | 1.6 | 9.7 | 0.00 | 1.85 | 0.03 | 45 | 1016.9 |
| 20260507154518 | 11 | 201 | 3.2 | 9.7 | 0.00 | 1.85 | 0.03 | 48 | 1017.0 |
| 20260507153058 | 10 | 218 | 3.2 | 6.4 | 0.00 | 1.85 | 0.03 | 49 | 1017.2 |
| 20260507151526 | 9 | 158 | 1.6 | 8.0 | 0.00 | 1.85 | 0.03 | 47 | 1017.1 |
| 20260507150022 | 8 | 176 | 1.6 | 6.4 | 0.00 | 1.85 | 0.03 | 51 | 1017.3 |
| 20260507144516 | 7 | 172 | 1.6 | 9.7 | 0.00 | 1.85 | 0.03 | 48 | 1017.3 |
| 20260507143030 | 7 | 225 | 1.6 | 8.0 | 0.03 | 1.85 | 0.03 | 50 | 1017.5 |
| 20260507141531 | 6 | 200 | 1.6 | 8.0 | 0.03 | 1.85 | 0.03 | 52 | 1017.4 |
| 20260507140023 | 5 | 238 | 1.6 | 6.4 | 0.03 | 1.85 | 0.03 | 52 | 1017.5 |
| 20260507134558 | 5 | 174 | 1.6 | 4.8 | 0.03 | 1.85 | 0.03 | 51 | 1017.5 |
| 20260507133031 | 5 | 161 | 1.6 | 6.4 | 0.00 | 1.83 | 0.00 | 51 | 1017.4 |
| 20260507131525 | 3 | 180 | 1.6 | 4.8 | 0.00 | 1.83 | 0.00 | 55 | 1017.6 |
| 20260507130020 | 3 | 190 | 1.6 | 4.8 | 0.00 | 1.83 | 0.00 | 56 | 1017.7 |
| 20260507124520 | 2 | 238 | 1.6 | 4.8 | 0.00 | 1.83 | 0.00 | 56 | 1017.5 |
| 20260507123030 | 2 | 175 | 1.6 | 4.8 | 0.00 | 1.83 | 0.00 | 57 | 1017.2 |
| 20260507121526 | 2 | 190 | 1.6 | 8.0 | 0.00 | 1.83 | 0.00 | 57 | 1017.1 |
| 20260507120019 | 2 | 159 | 1.6 | 6.4 | 0.00 | 1.83 | 0.00 | 55 | 1017.2 |
| 20260507114553 | 2 | 180 | 1.6 | 4.8 | 0.00 | 1.83 | 0.00 | 56 | 1017.1 |
| 20260507113055 | 2 | 194 | 3.2 | 6.4 | 0.00 | 1.83 | 0.00 | 56 | 1017.3 |
| 20260507111528 | 1 | 175 | 1.6 | 6.4 | 0.00 | 1.83 | 0.00 | 59 | 1017.2 |
| 20260507110019 | 1 | 204 | 0.0 | 4.8 | 0.00 | 1.83 | 0.00 | 62 | 1017.4 |
| 20260507104516 | 1 | 132 | 1.6 | 4.8 | 0.00 | 1.83 | 0.00 | 61 | 1017.5 |
| 20260507103032 | 1 | 171 | 1.6 | 4.8 | 0.00 | 1.83 | 0.00 | 63 | 1017.4 |
| 20260507101525 | 1 | 200 | 1.6 | 4.8 | 0.00 | 1.83 | 0.00 | 60 | 1017.5 |
| 20260507100023 | 1 | 221 | 1.6 | 8.0 | 0.00 | 1.83 | 0.00 | 61 | 1017.5 |
| 20260507094517 | 1 | 174 | 3.2 | 9.7 | 0.00 | 1.83 | 0.00 | 64 | 1017.7 |
| 20260507093015 | 0 | 147 | 1.6 | 6.4 | 0.00 | 1.83 | 0.00 | 66 | 1017.7 |
| 20260507091535 | 0 | 171 | 1.6 | 6.4 | 0.00 | 1.83 | 0.00 | 67 | 1017.6 |
| 20260507090024 | 0 | 229 | 1.6 | 6.4 | 0.00 | 1.83 | 0.00 | 68 | 1017.7 |
| 20260507084525 | 0 | 195 | 1.6 | 6.4 | 0.00 | 1.83 | 0.00 | 69 | 1017.9 |
| 20260507083014 | 0 | 156 | 1.6 | 6.4 | 0.00 | 1.83 | 0.00 | 70 | 1018.1 |
| 20260507081509 | 0 | 222 | 1.6 | 4.8 | 0.00 | 1.83 | 0.00 | 73 | 1018.1 |
| 20260507080030 | 0 | 173 | 1.6 | 6.4 | 0.00 | 1.83 | 0.00 | 74 | 1017.9 |
| 20260507074523 | 0 | 175 | 1.6 | 6.4 | 0.00 | 1.83 | 0.00 | 77 | 1018.3 |
| 20260507073021 | 0 | 190 | 1.6 | 6.4 | 0.00 | 1.83 | 0.00 | 77 | 1018.6 |
| 20260507071516 | 0 | 167 | 1.6 | 6.4 | 0.00 | 1.83 | 0.00 | 78 | 1018.4 |
| 20260507070034 | 0 | 196 | 3.2 | 6.4 | 0.00 | 1.83 | 0.00 | 80 | 1018.4 |
| 20260507064531 | 0 | 137 | 0.0 | 3.2 | 0.00 | 1.83 | 0.00 | 83 | 1018.6 |
| 20260507063027 | 0 | 203 | 0.0 | 4.8 | 0.00 | 1.83 | 0.00 | 85 | 1018.7 |
| 20260507061518 | 0 | 185 | 0.0 | 3.2 | 0.00 | 1.83 | 0.00 | 86 | 1018.4 |
| 20260507054526 | 0 | 180 | 1.6 | 3.2 | 0.00 | 1.83 | 1.83 | 86 | 1018.5 |
| 20260507053025 | 0 | 180 | 0.0 | 3.2 | 0.00 | 1.83 | 1.83 | 85 | 1018.5 |
| 20260507051520 | 0 | 180 | 0.0 | 3.2 | 0.00 | 1.83 | 1.83 | 85 | 1018.4 |
| 20260507050023 | 0 | 197 | 0.0 | 4.8 | 0.00 | 1.83 | 1.83 | 85 | 1018.4 |
| 20260507044511 | 0 | 190 | 0.0 | 4.8 | 0.00 | 1.83 | 1.83 | 85 | 1018.5 |
| 20260507043028 | 0 | 213 | 0.0 | 3.2 | 0.00 | 1.83 | 1.83 | 86 | 1018.4 |
| 20260507041521 | 0 | 190 | 0.0 | 4.8 | 0.00 | 1.83 | 1.83 | 87 | 1018.2 |
| 20260507040020 | 0 | 190 | 0.0 | 3.2 | 0.00 | 1.83 | 1.83 | 87 | 1018.1 |
| 20260507034521 | 0 | 229 | 0.0 | 3.2 | 0.00 | 1.83 | 1.83 | 88 | 1018.2 |
| 20260507033028 | 0 | 180 | 0.0 | 4.8 | 0.00 | 1.83 | 1.83 | 87 | 1018.2 |
| 20260507031525 | 0 | 165 | 0.0 | 3.2 | 0.00 | 1.83 | 1.83 | 87 | 1018.1 |
| 20260507030021 | 0 | 196 | 0.0 | 1.6 | 0.00 | 1.83 | 1.83 | 87 | 1018.1 |
| 20260507024523 | 0 | 204 | 0.0 | 3.2 | 0.00 | 1.83 | 1.83 | 86 | 1017.8 |
| 20260507023030 | 0 | 214 | 0.0 | 4.8 | 0.00 | 1.83 | 1.83 | 85 | 1017.8 |
| 20260507021524 | 1 | 200 | 0.0 | 4.8 | 0.00 | 1.83 | 1.83 | 85 | 1017.7 |
| 20260507020036 | 1 | 190 | 0.0 | 1.6 | 0.00 | 1.83 | 1.83 | 85 | 1017.9 |
| 20260507014559 | 1 | 185 | 0.0 | 3.2 | 0.03 | 1.83 | 1.83 | 83 | 1018.0 |
| 20260507013026 | 1 | 180 | 0.0 | 3.2 | 0.03 | 1.83 | 1.83 | 81 | 1018.0 |
| 20260507011535 | 1 | 190 | 1.6 | 4.8 | 0.05 | 1.83 | 1.83 | 80 | 1018.2 |
| 20260507010018 | 1 | 176 | 1.6 | 4.8 | 0.08 | 1.83 | 1.83 | 80 | 1018.3 |
| 20260507004517 | 1 | 190 | 1.6 | 6.4 | 0.08 | 1.80 | 1.80 | 79 | 1018.4 |
| 20260507003030 | 2 | 196 | 1.6 | 6.4 | 0.10 | 1.80 | 1.80 | 78 | 1018.5 |
| 20260507001555 | 2 | 197 | 1.6 | 6.4 | 0.15 | 1.78 | 1.78 | 77 | 1018.3 |
| 20260507000025 | 2 | 185 | 3.2 | 6.4 | 0.18 | 1.75 | 1.75 | 77 | 1018.5 |
| 20260506234518 | 2 | 69 | 1.6 | 6.4 | 0.18 | 1.75 | 1.73 | 78 | 1018.3 |
| 20260506233011 | 2 | 129 | 1.6 | 6.4 | 0.20 | 1.70 | 1.68 | 77 | 1018.5 |
| 20260506231530 | 2 | 84 | 3.2 | 6.4 | 0.20 | 1.65 | 1.63 | 78 | 1018.7 |
| 20260506230033 | 2 | 62 | 3.2 | 6.4 | 0.20 | 1.60 | 1.57 | 82 | 1018.5 |
| 20260506224521 | 2 | 57 | 3.2 | 6.4 | 0.23 | 1.68 | 1.55 | 81 | 1018.7 |
| 20260506223017 | 1 | 190 | 1.6 | 3.2 | 0.20 | 1.60 | 1.45 | 81 | 1018.9 |
| 20260506221530 | 1 | 171 | 1.6 | 4.8 | 0.20 | 1.55 | 1.42 | 84 | 1019.0 |
| 20260506220034 | 1 | 160 | 3.2 | 6.4 | 0.23 | 1.50 | 1.37 | 85 | 1019.2 |
| 20260506214523 | 1 | 325 | 1.6 | 4.8 | 0.25 | 1.50 | 1.32 | 82 | 1019.4 |
| 20260506213018 | 1 | 38 | 1.6 | 6.4 | 0.28 | 1.42 | 1.27 | 84 | 1019.4 |
| 20260506211520 | 2 | 340 | 1.6 | 4.8 | 0.33 | 1.40 | 1.22 | 82 | 1019.5 |
| 20260506210046 | 1 | 343 | 1.6 | 4.8 | 0.41 | 1.32 | 1.14 | 83 | 1019.7 |
| 20260506204521 | 1 | 322 | 0.0 | 4.8 | 0.48 | 1.27 | 1.07 | 84 | 1019.7 |